Regional Weather Roundup
Issued by NWS

Home | Current Version | Previous Version | Graphics & Text | Print | Product List | Glossary On
Versions: 1 2 3 4 5 6 7 8 9 10 11 12 13 14 15 16 17 18 19 20 21 22 23 24 25 26 27 28 29 30 31 32 33 34 35 36 37 38 39 40 41 42 43 44 45 46 47 48 49 50
000
ASUS44 KMEG 280900
RWRTN
TENNESSEE HOURLY STATE WEATHER ROUNDUP
NATIONAL WEATHER SERVICE MEMPHIS TN
300 AM CST TUE FEB 28 2017

TNZ002-004-019-021-049-052-054-088>092-281000-
WEST TENNESSEE

CITY           SKY/WX    TMP DP  RH WIND       PRES   REMARKS
MEMPHIS INTL   CLOUDY    61  57  87 S13       30.03F
NWS MEMPHIS      N/A     60 N/A N/A MISG        N/A
JACKSON        CLOUDY    59  56  89 S14G24    30.06F
UNION CITY     CLOUDY    55  55 100 S10       30.01F
PARIS          PTCLDY    54  50  87 S14       30.05F
$$

TNZ008-025-027-028-033-062-065-066-281000-
NORTH MIDDLE TENNESSEE

CITY           SKY/WX    TMP DP  RH WIND       PRES   REMARKS
NASHVILLE      CLOUDY    55  50  83 S9        30.12F
CLARKSVILLE    MOCLDY    53  48  83 S9        30.07F
SMYRNA         CLOUDY    54  50  86 VRB5      30.14F
CROSSVILLE     CLOUDY    51  47  86 VRB7      30.19F
$$

TNZ061-075-076-078-094-096-097-281000-
SOUTH MIDDLE TENNESSEE

CITY           SKY/WX    TMP DP  RH WIND       PRES   REMARKS
TULLAHOMA      CLEAR     48  46  93 S7        30.17S
WINCHESTER     CLOUDY    52  48  87 S9        30.19S
MCMINNVILLE    MOCLDY    48  48 100 CALM      30.15S
COLUMBIA       PTCLDY   N/A N/A N/A S12       30.11F
SHELBYVILLE    PTCLDY    52  50  93 S6        30.17S
$$

TNZ017-018-042-046-047-281000-
NORTHEAST TENNESSEE

CITY           SKY/WX    TMP DP  RH WIND       PRES   REMARKS
TRI CITIES     CLEAR     37  34  89 CALM      30.23F
$$

TNZ012-013-036-069-073-074-281000-
CENTRAL EAST TENNESSEE

CITY           SKY/WX    TMP DP  RH WIND       PRES   REMARKS
KNOXVILLE      PTCLDY    41  37  86 CALM      30.20F
OAK RIDGE      PTCLDY    42  38  85 CALM      30.22F
GATLINBURG     CLEAR     32  30  93 CALM      30.21F
$$

TNZ083-085-099-281000-
SOUTHEAST TENNESSEE

CITY           SKY/WX    TMP DP  RH WIND       PRES   REMARKS
CHATTANOOGA    CLOUDY    47  44  90 CALM      30.24F
$$

SKY/WX REPORTED AS FAIR MEANS FEW OR NO CLOUDS BELOW
12 THOUSAND FEET.





USA.gov is the U.S. government's official web portal to all federal, state and local government web resources and services.